GW4072 Weather Reports


time (UTC)temp
F
wind
direction
speed
knots
gust
knots
rain 1hr
in
rain 24hr
in
rain mn
in
humidity
%
barometer
mb
20260504081028 61 298 3.5 8.7 0.00 0.00 0.00 33 993.8
20260504080530 61 177 3.5 8.7 0.00 0.00 0.00 33 993.8
20260504050528 60 203 3.5 10.4 0.00 0.00 0.00 36 997.9
20260504045527 60 182 3.5 8.7 0.00 0.00 0.00 36 998.1
20260504045030 60 170 4.3 8.7 0.00 0.00 0.00 36 998.2
20260504044545 60 191 2.6 8.7 0.00 0.00 0.00 37 998.3
20260504044027 60 146 4.3 10.4 0.00 0.00 0.00 37 998.3
20260504043527 60 178 5.2 10.4 0.00 0.00 0.00 36 998.4
20260504043055 60 202 3.5 10.4 0.00 0.00 0.00 36 998.5
20260504042528 60 153 3.5 9.6 0.00 0.00 0.00 37 998.7
20260504042032 60 240 2.6 9.6 0.00 0.00 0.00 36 998.7
20260504041544 60 215 4.3 9.6 0.00 0.00 0.00 36 998.9
20260504041025 60 214 3.5 9.6 0.00 0.00 0.00 36 999.0
20260504040525 60 210 2.6 8.7 0.00 0.00 0.00 36 999.1
20260504040047 60 195 3.5 8.7 0.00 0.00 0.00 36 999.2
20260504035528 60 214 3.5 8.7 0.00 0.00 0.00 36 999.3
20260504035032 60 215 4.3 8.7 0.00 0.00 0.00 35 999.5
20260504034549 60 210 3.5 7.8 0.00 0.00 0.00 35 999.5
20260504034027 61 159 4.3 7.8 0.00 0.00 0.00 35 999.8
20260504033530 61 209 2.6 7.8 0.00 0.00 0.00 35 999.8
20260504033042 61 167 4.3 7.8 0.00 0.00 0.00 34 1000.0
20260504032528 61 169 4.3 7.8 0.00 0.00 0.00 34 1000.1
20260504032028 61 179 4.3 7.8 0.00 0.00 0.00 34 1000.3
20260504031545 61 175 3.5 7.8 0.00 0.00 0.00 34 1000.3
20260504031027 61 198 3.5 7.8 0.00 0.00 0.00 33 1000.6
20260504030527 61 198 3.5 7.8 0.00 0.00 0.00 33 1000.7
20260504030048 61 193 3.5 7.8 0.00 0.00 0.00 33 1000.8
20260504025528 61 202 3.5 7.8 0.00 0.00 0.00 33 1001.0
20260504025028 61 155 2.6 6.1 0.00 0.00 0.00 33 1001.1
20260504024542 61 172 3.5 6.1 0.00 0.00 0.00 33 1001.2
20260504024024 61 219 3.5 6.1 0.00 0.00 0.00 33 1001.4
20260504023528 61 198 2.6 5.2 0.00 0.00 0.00 33 1001.5
20260504023041 61 199 2.6 5.2 0.00 0.00 0.00 32 1001.6
20260504022530 61 155 2.6 4.3 0.00 0.00 0.00 32 1001.6
20260504022028 61 205 1.7 3.5 0.00 0.00 0.00 32 1001.7
20260504021546 61 196 1.7 3.5 0.00 0.00 0.00 32 1001.7
20260504021027 62 198 1.7 3.5 0.00 0.00 0.00 31 1001.9
20260504020527 62 204 1.7 3.5 0.00 0.00 0.00 31 1001.9
20260504020059 62 191 1.7 3.5 0.00 0.00 0.00 31 1002.0
20260504015527 62 162 1.7 2.6 0.00 0.00 0.00 31 1002.2
20260504015028 62 182 1.7 3.5 0.00 0.00 0.00 30 1002.3
20260504014551 63 186 1.7 3.5 0.00 0.00 0.00 30 1002.3
20260504014027 63 195 0.9 1.7 0.00 0.00 0.00 29 1002.4
20260504013527 63 193 0.0 1.7 0.00 0.00 0.00 29 1002.5
20260504013047 63 250 0.9 1.7 0.00 0.00 0.00 29 1002.6
20260504012527 63 231 0.0 1.7 0.00 0.00 0.00 29 1002.8
20260504012028 64 220 0.0 2.6 0.00 0.00 0.00 29 1002.8
20260504011545 64 203 0.0 2.6 0.00 0.00 0.00 28 1002.9
20260504011026 64 213 0.0 2.6 0.00 0.00 0.00 28 1002.9
20260504010526 65 279 0.0 7.8 0.00 0.00 0.00 27 1003.0
20260504010041 65 266 2.6 7.8 0.00 0.00 0.00 27 1003.0
20260504005528 65 271 1.7 6.1 0.00 0.00 0.00 27 1003.2
20260504005028 65 268 0.9 3.5 0.00 0.00 0.00 27 1003.3
20260504004541 65 148 0.9 3.5 0.00 0.00 0.00 27 1003.2
20260504004027 66 278 0.9 4.3 0.00 0.00 0.00 27 1003.4
20260504003527 66 288 0.9 5.2 0.00 0.00 0.00 27 1003.4
20260504003047 66 287 1.7 5.2 0.00 0.00 0.00 27 1003.4
20260504002527 66 252 1.7 8.7 0.00 0.00 0.00 27 1003.6
20260504002027 66 232 2.6 8.7 0.00 0.00 0.00 26 1003.8
20260504001548 66 245 1.7 6.1 0.00 0.00 0.00 27 1003.8
20260504001030 66 252 2.6 7.0 0.00 0.00 0.00 26 1003.9
20260504000525 67 271 2.6 7.0 0.00 0.00 0.00 26 1003.9
20260504000049 67 233 2.6 6.1 0.00 0.00 0.00 26 1003.9
20260503235527 67 247 1.7 7.8 0.00 0.00 0.00 25 1004.0
20260503235025 67 279 3.5 7.8 0.00 0.00 0.00 25 1003.9
20260503234543 67 262 2.6 7.0 0.00 0.00 0.00 25 1003.8
20260503234027 68 27 1.7 7.8 0.00 0.00 0.00 25 1003.9
20260503233527 67 233 2.6 7.8 0.00 0.00 0.00 25 1004.0
20260503233040 67 293 3.5 8.7 0.00 0.00 0.00 25 1004.0
20260503232526 67 245 2.6 9.6 0.00 0.00 0.00 25 1004.1
20260503232028 67 288 3.5 12.2 0.00 0.00 0.00 24 1004.3
20260503231541 68 250 3.5 12.2 0.00 0.00 0.00 23 1004.4
20260503231025 68 273 3.5 12.2 0.00 0.00 0.00 23 1004.4
20260503230529 68 274 2.6 11.3 0.00 0.00 0.00 25 1004.5
20260503230047 68 262 6.1 10.4 0.00 0.00 0.00 24 1004.5
20260503225530 68 286 4.3 10.4 0.00 0.00 0.00 24 1004.5
20260503225029 68 10 1.7 8.7 0.00 0.00 0.00 25 1004.5
20260503224547 68 240 2.6 8.7 0.00 0.00 0.00 25 1004.5
20260503224027 68 17 3.5 8.7 0.00 0.00 0.00 25 1004.6
20260503223527 67 306 1.7 7.8 0.00 0.00 0.00 25 1004.6
20260503223043 67 249 3.5 7.8 0.00 0.00 0.00 24 1004.6
20260503222529 67 284 2.6 6.1 0.00 0.00 0.00 24 1004.6
20260503222030 67 313 3.5 11.3 0.00 0.00 0.00 24 1004.6
20260503221542 67 243 3.5 12.2 0.00 0.00 0.00 25 1004.7
20260503221029 67 233 4.3 12.2 0.00 0.00 0.00 26 1004.6
20260503220529 67 293 3.5 12.2 0.00 0.00 0.00 25 1004.5
20260503220042 67 311 4.3 13.9 0.00 0.00 0.00 25 1004.6
20260503215529 68 294 4.3 13.9 0.00 0.00 0.00 24 1004.7
20260503215028 68 311 3.5 10.4 0.00 0.00 0.00 24 1004.7
20260503214543 69 345 3.5 10.4 0.00 0.00 0.00 24 1004.7
20260503214030 68 304 2.6 10.4 0.00 0.00 0.00 25 1004.7
20260503213528 68 229 1.7 10.4 0.00 0.00 0.00 25 1004.8
20260503213044 68 262 2.6 7.0 0.00 0.00 0.00 24 1004.9
20260503212529 68 332 3.5 7.0 0.00 0.00 0.00 25 1004.9
20260503212029 68 288 2.6 7.0 0.00 0.00 0.00 24 1005.3
20260503211605 68 250 3.5 7.8 0.00 0.00 0.00 24 1005.3
20260503211029 68 338 3.5 8.7 0.00 0.00 0.00 24 1005.4
20260503210529 68 278 3.5 8.7 0.00 0.00 0.00 24 1005.5
20260503210043 68 351 3.5 9.6 0.00 0.00 0.00 24 1005.5
20260503205529 68 304 2.6 9.6 0.00 0.00 0.00 25 1005.6
20260503205029 68 314 2.6 7.0 0.00 0.00 0.00 25 1005.8
20260503204542 68 300 2.6 7.0 0.00 0.00 0.00 23 1005.7
20260503204031 67 76 1.7 7.8 0.00 0.00 0.00 25 1005.9
20260503203533 67 291 3.5 7.8 0.00 0.00 0.00 24 1005.9
20260503203047 67 307 3.5 9.6 0.00 0.00 0.00 25 1006.0
20260503202529 67 291 2.6 9.6 0.00 0.00 0.00 25 1006.0
20260503202029 67 266 5.2 9.6 0.00 0.00 0.00 24 1006.2
20260503201542 67 247 2.6 8.7 0.00 0.00 0.00 24 1006.2
20260503201028 68 300 1.7 8.7 0.00 0.00 0.00 25 1006.2
20260503200529 67 30 3.5 11.3 0.00 0.00 0.00 24 1006.2
20260503200056 67 8 2.6 11.3 0.00 0.00 0.00 23 1006.4
20260503195529 66 271 1.7 11.3 0.00 0.00 0.00 24 1006.5
20260503195029 67 63 5.2 11.3 0.00 0.00 0.00 23 1006.6
20260503194547 67 281 2.6 10.4 0.00 0.00 0.00 24 1006.6
20260503194028 67 212 0.9 10.4 0.00 0.00 0.00 25 1006.7
20260503193529 67 276 3.5 10.4 0.00 0.00 0.00 24 1006.7
20260503193055 67 306 1.7 9.6 0.00 0.00 0.00 25 1006.7
20260503192529 66 287 2.6 9.6 0.00 0.00 0.00 25 1006.8
20260503192028 66 293 3.5 8.7 0.00 0.00 0.00 25 1006.9
20260503191545 66 63 1.7 9.6 0.00 0.00 0.00 25 1007.0
20260503191029 66 264 1.7 9.6 0.00 0.00 0.00 25 1007.3
20260503190529 66 359 2.6 7.8 0.00 0.00 0.00 26 1007.1
20260503190047 65 48 2.6 7.0 0.00 0.00 0.00 25 1007.2
20260503185528 65 332 1.7 7.8 0.00 0.00 0.00 26 1007.4
20260503185029 64 298 1.7 7.8 0.00 0.00 0.00 27 1007.4
20260503184552 64 11 2.6 7.8 0.00 0.00 0.00 25 1007.4
20260503184030 64 358 3.5 9.6 0.00 0.00 0.00 28 1007.6
20260503183529 63 337 3.5 9.6 0.00 0.00 0.00 27 1007.5
20260503183043 63 342 2.6 7.0 0.00 0.00 0.00 26 1007.6
20260503182528 63 58 2.6 8.7 0.00 0.00 0.00 26 1007.7
20260503182032 63 342 1.7 8.7 0.00 0.00 0.00 28 1007.8
20260503181608 63 41 2.6 8.7 0.00 0.00 0.00 27 1007.9
20260503181028 63 352 2.6 7.0 0.00 0.00 0.00 27 1007.9
20260503180528 63 266 2.6 6.1 0.00 0.00 0.00 28 1008.1
20260503180106 62 277 1.7 10.4 0.00 0.00 0.00 28 1008.1
20260503175529 62 274 2.6 10.4 0.00 0.00 0.00 26 1008.2
20260503175029 62 319 4.3 10.4 0.00 0.00 0.00 28 1008.3
20260503174551 62 308 1.7 7.0 0.00 0.00 0.00 28 1008.3
20260503174030 62 333 2.6 8.7 0.00 0.00 0.00 28 1008.5
20260503173529 62 272 1.7 8.7 0.00 0.00 0.00 29 1008.5
20260503173053 62 297 2.6 8.7 0.00 0.00 0.00 27 1008.5
20260503172528 62 320 2.6 8.7 0.00 0.00 0.00 29 1008.5
20260503172031 62 28 3.5 8.7 0.00 0.00 0.00 26 1008.7
20260503171540 62 345 3.5 8.7 0.00 0.00 0.00 27 1008.7
20260503171031 62 17 1.7 9.6 0.00 0.00 0.00 26 1008.6
20260503170532 62 335 3.5 9.6 0.00 0.00 0.00 28 1008.6
20260503150531 57 314 2.6 7.0 0.00 0.00 0.00 37 1008.7
20260503131027 52 326 0.9 6.1 0.00 0.00 0.00 61 1008.2
20260503130529 51 335 0.9 7.0 0.00 0.00 0.00 62 1008.1
20260503110528 43 293 0.0 0.9 0.00 0.00 0.00 78 1006.8
20260503081544 45 0 0.0 0.0 0.00 0.00 0.00 66 1005.7